Retour au catalogue

CZ-4 DEB

ActifPO
NORAD 26134·DEBRIS·🇨🇳 China

Lancé Oct 14, 1999 depuis Taiyuan Satellite Launch Center

Loading…

Prochains Passages (prochaines 24 heures)

TLE

FraisSource: Space-Track

Époque: Sep 14, 2026, 05:17 UTC

1 26134U 99057W   26257.22076866  .00000517  00000-0  36582-3 0  9995
2 26134  98.9857  49.1720 0417798  96.5165  74.4938 13.66431763313243

Suivez CZ-4 DEB en temps réel avec AllMySat

Download on the App Store